Miscellaneous Local Product
Issued by NWS Hastings, NE

Home | Current Version | Previous Version | Graphics & Text | Print | Product List | Glossary On
Versions: 1 2 3 4 5 6 7 8 9 10 11 12 13 14 15 16 17 18 19 20 21 22 23 24 25 26 27 28 29 30 31 32 33 34 35 36 37 38 39 40 41 42 43 44 45 46 47 48 49 50
000
AXUS43 KGID 221702
MISGRI

GID CWA HOURLY WEATHER ROUNDUP
NATIONAL WEATHER SERVICE HASTINGS NE
1100 AM CST MON DEC 22 2014

NOTE: "FAIR" INDICATES FEW OR NO CLOUDS BELOW 12,000 FEET WITH NO
SIGNIFICANT WEATHER AND/OR OBSTRUCTIONS TO VISIBILITY.

...SOUTH CENTRAL NEBRASKA...

CITY           SKY/WX    TMP DP  RH WIND       PRES   REMARKS
GRAND ISLAND   CLOUDY    43  35  73 NW20      29.52F
HASTINGS       CLOUDY    45  35  68 NW20      29.53S
KEARNEY        PTSUNNY   43  34  70 W14       29.56R
ORD              N/A     41  33  73 NW16      29.51S
YORK           CLOUDY    43  39  87 NW17G23   29.50F
AURORA         CLOUDY    43  38  80 NW20      29.51S
LEXINGTON      CLOUDY    40  35  81 NW15      29.57S WCI  32
HOLDREGE       PTSUNNY   42  36  78 NW10      29.57S
HEBRON         CLOUDY    43  38  82 NW13G18   29.53S

...NEBRASKA PANHANDLE...

CITY           SKY/WX    TMP DP  RH WIND       PRES   REMARKS
CHADRON        CLOUDY    39  25  57 NW16G26   29.64F WCI  30
ALLIANCE       SUNNY     35  25  66 W18       29.61F WCI  24
SCOTTSBLUFF    MOSUNNY   35  25  66 NW9       29.68F WCI  28
SIDNEY         SUNNY     37  24  59 NW18      29.67S WCI  27

...WESTERN AND NORTH CENTRAL NEBRASKA...

CITY           SKY/WX    TMP DP  RH WIND       PRES   REMARKS
VALENTINE      PTSUNNY   40  29  64 NW21G28   29.51S WCI  30
AINSWORTH      CLOUDY    39  30  69 NW24G31   29.50S WCI  29
ONEILL         CLOUDY    40  37  90 NW17G23   29.49R WCI  31
BROKEN BOW     MOSUNNY   43  33  68 NW18      29.53S
IMPERIAL       PTSUNNY   41  27  57 NW13      29.65R
NORTH PLATTE   MOSUNNY   43  28  55 NW23G30   29.58F
MCCOOK         PTSUNNY   45  29  53 NW22G29   29.62S

...EASTERN NEBRASKA...

CITY           SKY/WX    TMP DP  RH WIND       PRES   REMARKS
NORFOLK        CLOUDY    42  39  89 NW12G20   29.46S
SO SIOUX CITY  CLOUDY    42  41  96 S13       29.48S FOG
TEKAMAH        LGT RAIN  43  41  93 SE14      29.48F
COLUMBUS       CLOUDY    43  37  81 NW17      29.49F
ALBION         CLOUDY    41  36  83 NW18G24   29.49S
OMAHA EPPLEY   LGT RAIN  42  41  96 SE13      29.50F FOG
MILLARD        LGT RAIN  42  41  93 SE10      29.49F
LINCOLN        CLOUDY    44  40  85 NW12      29.49F
NEBRASKA CITY  DRIZZLE   41  41 100 SE8       29.50F
BEATRICE       CLOUDY    44  43  97 NW8       29.49S FOG
FALLS CITY     RAIN      43  32  65 S12       29.50F

...NORTHERN KANSAS...

CITY           SKY/WX    TMP DP  RH WIND       PRES   REMARKS
GOODLAND       MOSUNNY   43  28  55 NW24G31   29.70S
HILL CITY      PTSUNNY   46  31  55 NW18G28   29.63F
NORTON         MOSUNNY   43  30  61 W18G24    29.60F
PHILLIPSBURG   SUNNY     48  36  61 NW18G25   29.60F
SMITH CENTER   SUNNY     45  36  70 W17       29.58F
BELOIT         MOSUNNY   46  39  76 NW12      29.56F
HAYS           MOSUNNY   46  30  53 NW20G26   29.63S
RUSSELL        PTSUNNY   46  37  71 NW22      29.60R
CONCORDIA      CLOUDY    43  40  89 NW13      29.54S
SALINA         CLOUDY    45  39  79 NW15      29.58R
TOPEKA         LGT RAIN  47  45  93 S12       29.53F



USA.gov is the U.S. government's official web portal to all federal, state and local government web resources and services.